[[{"header":{"parameterUnit":"m.s-1","parameterCategory":1,"la1":30.2991,"la2":30.254,"lo1":-89.0895,"lo2":-89.0444,"dy":0.0017,"dx":0.0017,"nx":28,"ny":28,"refTime":"2025-04-04T03:00:00:Z","depth":0,"parameterNumber":2,"parameterNumberName":"U-component_of_WINDS"},"data":[0,0,0,0,0,0,0,0,0,0,0,0,0,0,0,0,0,0,0,0,0,0,0,0,0,0,0,0,0,0,0,0,0,0,0,0,0,0,0,0,0,0,0,0,0,0,0,0,0,0,0,0,0,0,0,0,0,0,-4.7935,-4.7936,0,-4.8023,-4.8024,-4.8025,-4.8019,-4.8018,-4.8017,-4.8015,-4.8105,-4.8109,-4.8112,0,0,0,0,0,0,0,0,0,0,0,0,0,-4.7761,-4.7764,-4.7935,-4.7936,-4.7937,-4.8023,-4.8024,-4.8025,-4.8019,-4.8018,-4.8016,-4.8015,-4.8104,-4.8108,-4.8113,0,0,0,0,0,0,0,0,0,0,0,0,0,-4.7842,-4.7765,-4.7934,-4.7944,-4.7946,-4.8023,-4.8024,-4.8026,-4.802,-4.8018,-4.8016,-4.8014,-4.8103,-4.8108,-4.8113,-4.8186,0,0,-4.813,-4.8132,0,0,0,0,0,0,0,0,-4.7837,-4.7848,-4.7942,-4.7944,-4.7946,-4.8008,-4.7996,-4.8079,-4.802,-4.7992,-4.8015,-4.8013,-4.8074,-4.8082,-4.8103,-4.819,-4.8194,-4.813,-4.8133,-4.8136,-4.8137,0,0,0,0,0,0,0,-4.7831,-4.7844,-4.797,-4.7943,-4.7946,-4.7944,-4.7954,-4.8012,-4.8043,-4.7994,-4.7994,-4.8004,-4.8075,-4.8098,-4.8105,-4.8195,-4.813,-4.8135,-4.8138,-4.814,-4.8347,-4.8349,0,0,0,0,0,0,-4.7824,-4.784,-4.7967,-4.7972,-4.7886,-4.7949,-4.796,-4.799,-4.8042,-4.8048,-4.8006,-4.8004,-4.8089,-4.8099,-4.8108,-4.8196,-4.8136,-4.8141,-4.8144,-4.8344,-4.8347,-4.835,0,0,0,0,0,0,-4.782,-4.7835,-4.7963,-4.7906,-4.7922,-4.7954,-4.7989,-4.7993,-4.8015,-4.8051,-4.8057,-4.8023,-4.8088,-4.81,-4.8167,-4.8199,-4.8143,-4.8148,-4.8342,-4.8345,-4.8348,-4.8372,0,0,0,0,0,0,-4.7815,-4.7834,-4.7861,-4.7907,-4.7925,-4.802,-4.7991,-4.7996,-4.8025,-4.8023,-4.8069,-4.8075,-4.8088,-4.8159,-4.8172,-4.8205,-4.8152,-4.8339,-4.8343,-4.8347,-4.8368,-4.8375,-4.8382,0,0,0,0,0,-4.7809,-4.7864,-4.7863,-4.7878,-4.796,-4.8022,-4.8032,-4.8046,-4.8027,-4.8055,-4.8079,-4.8073,-4.8194,-4.8165,-4.818,-4.8216,-4.8337,-4.8342,-4.8347,-4.8365,-4.8374,-4.8382,0,0,0,0,0,0,-4.7821,-4.787,-4.7869,-4.794,-4.7977,-4.802,-4.8056,-4.8055,-4.8098,-4.8094,-4.811,-4.812,-4.8186,-4.8208,-4.8176,-4.8289,-4.8263,-4.8271,-4.8272,-4.828,-4.8287,-4.8279,-4.8157,0,0,0,0,0,-4.7832,-4.7878,-4.7919,-4.7978,-4.7996,-4.8023,-4.805,-4.8059,-4.8097,-4.8112,-4.814,-4.8178,-4.8224,-4.8254,-4.8299,-4.8373,-4.8382,-4.8405,-4.8412,-4.8417,-4.8423,-4.8463,-4.8473,-4.8366,-4.8366,-4.8366,0,0,-4.7855,-4.7888,-4.7915,-4.7981,-4.801,-4.8057,-4.8036,-4.8086,-4.8121,-4.812,-4.8183,-4.8206,-4.8249,-4.8319,-4.8351,-4.8339,-4.8455,-4.8423,-4.8427,-4.843,-4.847,-4.848,-4.8489,-4.8369,-4.8369,-4.8368,0,0,-4.792,-4.795,-4.8002,-4.8033,-4.8077,-4.8095,-4.8108,-4.8153,-4.8167,-4.8232,-4.8232,-4.8275,-4.8354,-4.8385,-4.841,-4.8491,-4.8487,-4.8505,-4.8539,-4.8578,-4.8587,-4.8594,-4.8621,-4.8631,-4.8512,-4.8512,-4.8512,0,-4.7942,-4.8013,-4.8029,-4.808,-4.8109,-4.8111,-4.8164,-4.8193,-4.825,-4.827,-4.8256,-4.8357,-4.8386,-4.8463,-4.8483,-4.8505,-4.8519,-4.8498,-4.8585,-4.8592,-4.8599,-4.8625,-4.8636,-4.8514,-4.8513,-4.8513,-4.8513,0,-4.8038,-4.8087,-4.8124,-4.8179,-4.8213,-4.8265,-4.8289,-4.8322,-4.8328,-4.8348,-4.8414,-4.845,-4.8501,-4.8521,-4.8528,-4.86,-4.8591,-4.8581,-4.8554,-4.8611,-4.8636,-4.8646,-4.8516,-4.8515,-4.8515,-4.8514,0,0,-4.8109,-4.8175,-4.8188,-4.8213,-4.8264,-4.8303,-4.8356,-4.8407,-4.8434,-4.8475,-4.8518,-4.8588,-4.8579,-4.8609,-4.8619,-4.8654,-4.8714,-4.864,-4.8641,-4.865,-4.8795,-4.88,-4.8811,-4.8713,-4.8715,-4.8717,-4.879,0,-4.8178,-4.827,-4.8288,-4.8368,-4.8414,-4.8418,-4.8464,-4.8501,-4.8522,-4.8564,-4.8587,-4.8635,-4.8621,-4.8639,-4.8674,-4.8699,-4.8742,-4.8694,-4.8753,-4.8755,-4.8739,-4.8824,-4.8829,-4.8897,-4.88,-4.8802,-4.8803,0,-4.8269,-4.8312,-4.8397,-4.8443,-4.8463,-4.8504,-4.8553,-4.8593,-4.8635,-4.8648,-4.8683,-4.869,-4.8745,-4.8719,-4.8795,-4.8762,-4.8788,-4.8805,-4.8808,-4.8811,-4.878,-4.8827,-4.8919,-4.8928,-4.8819,-4.8818,-4.8817,0,-4.831,-4.839,-4.8451,-4.8473,-4.8528,-4.8557,-4.8582,-4.8622,-4.8652,-4.8696,-4.8715,-4.8765,-4.8792,-4.883,-4.8851,-4.883,-4.8925,-4.8901,-4.8936,-4.8936,-4.8953,-4.8951,-4.9047,-4.8975,-4.8975,-4.8975,-4.8974,0,-4.8383,-4.8434,-4.847,-4.8507,-4.8565,-4.8586,-4.8643,-4.8668,-4.8704,-4.8746,-4.8755,-4.8794,-4.882,-4.8864,-4.8881,-4.8941,-4.8954,-4.8965,-4.8968,-4.8963,-4.8961,-4.8977,-4.8972,-4.8977,-4.8977,-4.8976,-4.8976,0,-4.8437,-4.8463,-4.853,-4.8578,-4.8591,-4.8632,-4.8673,-4.8709,-4.8732,-4.8785,-4.8799,-4.8834,-4.8886,-4.8911,-4.8976,-4.8987,-4.9055,-4.9057,-4.904,-4.9041,-4.9074,-4.907,-4.9181,-4.9197,-4.9117,-4.9117,-4.9118,0,-4.848,-4.8519,-4.8572,-4.8601,-4.8626,-4.8673,-4.8704,-4.8728,-4.876,-4.8812,-4.8842,-4.8895,-4.8938,-4.9021,-4.9052,-4.9102,-4.9103,-4.9139,-4.9111,-4.9104,-4.9101,-4.9097,-4.9101,-4.9143,-4.9144,-4.9145,-4.9145,0,-4.8553,-4.8565,-4.8609,-4.8659,-4.8696,-4.8736,-4.8775,-4.8799,-4.8829,-4.8864,-4.8918,-4.8951,-4.9018,-4.907,-4.9123,-4.9148,-4.9151,-4.9155,-4.9165,-4.9158,-4.9146,-4.9151,-4.9051,-4.9151,-4.915,-4.915,-4.915,-4.9149,-4.8601,-4.8637,-4.8679,-4.8729,-4.8762,-4.8799,-4.8836,-4.8863,-4.8908,-4.8964,-4.8976,-4.9032,-4.9075,-4.9146,-4.9174,-4.9219,-4.9211,-4.9226,-4.923,-4.9232,-4.9233,-4.9142,-4.9229,-4.9229,-4.9229,-4.9228,-4.9228,0,-4.8673,-4.8701,-4.8747,-4.8802,-4.8842,-4.8843,-4.8888,-4.892,-4.897,-4.901,-4.9052,-4.9114,-4.9165,-4.9202,-4.9254,-4.9283,-4.9285,-4.9295,-4.9292,-4.9297,-4.9238,-4.9223,-4.9292,-4.9292,-4.9292,-4.9292,-4.9292,-4.9292,-4.8715,-4.8775,-4.8792,-4.8868,-4.8897,-4.8952,-4.8977,-4.9011,-4.9043,-4.9112,-4.9154,-4.9178,-4.9217,-4.9272,-4.932,-4.9329,-4.9347,-4.9357,-4.9366,-4.9309,-4.9302,-4.9295,-4.9281,-4.9361,-4.9361,-4.9421,-4.9421,-4.9422]},{"header":{"parameterUnit":"m.s-1","parameterCategory":1,"la1":30.2991,"la2":30.254,"lo1":-89.0895,"lo2":-89.0444,"dy":0.0017,"dx":0.0017,"nx":28,"ny":28,"refTime":"2025-04-04T03:00:00:Z","depth":0,"parameterNumber":3,"parameterNumberName":"V-component_of_WINDS"},"data":[0,0,0,0,0,0,0,0,0,0,0,0,0,0,0,0,0,0,0,0,0,0,0,0,0,0,0,0,0,0,0,0,0,0,0,0,0,0,0,0,0,0,0,0,0,0,0,0,0,0,0,0,0,0,0,0,0,0,4.3482,4.3483,0,4.3514,4.3514,4.3515,4.3503,4.3502,4.3501,4.35,4.353,4.3532,4.3533,0,0,0,0,0,0,0,0,0,0,0,0,0,4.3412,4.3413,4.3482,4.3483,4.3483,4.3514,4.3514,4.3515,4.3503,4.3502,4.3501,4.35,4.353,4.3532,4.3533,0,0,0,0,0,0,0,0,0,0,0,0,0,4.3443,4.3413,4.3482,4.3481,4.3481,4.3514,4.3514,4.3515,4.3503,4.3502,4.3501,4.35,4.3529,4.3531,4.3534,4.3569,0,0,4.354,4.3541,0,0,0,0,0,0,0,0,4.3441,4.3445,4.3481,4.3481,4.3481,4.3503,4.35,4.3533,4.3503,4.3495,4.35,4.3499,4.3522,4.3525,4.3533,4.357,4.3571,4.3541,4.3542,4.3543,4.3543,0,0,0,0,0,0,0,4.3439,4.3444,4.3495,4.3481,4.3482,4.3479,4.3482,4.3506,4.3514,4.3495,4.3494,4.3498,4.3522,4.3531,4.3534,4.3572,4.3541,4.3542,4.3544,4.3545,4.3642,4.3644,0,0,0,0,0,0,4.3437,4.3442,4.3494,4.3496,4.3458,4.3481,4.3484,4.3497,4.3514,4.3515,4.3499,4.3498,4.3528,4.3531,4.3535,4.3579,4.3543,4.3545,4.3546,4.3641,4.3643,4.3644,0,0,0,0,0,0,4.3435,4.3441,4.3493,4.3469,4.3475,4.3483,4.3498,4.3498,4.3507,4.3517,4.3518,4.3507,4.3527,4.3532,4.3561,4.358,4.3546,4.3548,4.364,4.3642,4.3643,4.3667,0,0,0,0,0,0,4.3433,4.3441,4.3454,4.3469,4.3476,4.3519,4.3499,4.35,4.3512,4.351,4.3524,4.3526,4.3526,4.3558,4.3563,4.3582,4.355,4.3638,4.3641,4.3643,4.3664,4.3669,4.3673,0,0,0,0,0,4.3431,4.3458,4.3455,4.3461,4.3493,4.352,4.3524,4.3525,4.3513,4.3527,4.3533,4.3525,4.3577,4.3561,4.3567,4.3587,4.3637,4.364,4.3643,4.3662,4.3668,4.3673,0,0,0,0,0,0,4.3444,4.346,4.3457,4.349,4.3504,4.3518,4.3535,4.3531,4.3547,4.3545,4.3545,4.3548,4.3579,4.3586,4.3568,4.3623,4.3605,4.3609,4.3618,4.3624,4.3628,4.3626,4.3551,0,0,0,0,0,4.3451,4.3472,4.3484,4.3513,4.352,4.3527,4.3538,4.3538,4.3552,4.3557,4.3566,4.3579,4.3599,4.3611,4.3629,4.3665,4.3669,4.3682,4.3686,4.369,4.3694,4.3715,4.3722,4.3653,4.3653,4.3653,0,0,4.3465,4.3477,4.3489,4.3516,4.3526,4.3548,4.3531,4.3554,4.357,4.356,4.359,4.3597,4.3612,4.3645,4.366,4.3651,4.3713,4.3693,4.3696,4.3698,4.3719,4.3725,4.3731,4.3655,4.3655,4.3655,0,0,4.3503,4.3513,4.3539,4.3551,4.3568,4.3572,4.3579,4.3594,4.3599,4.3628,4.3622,4.3641,4.3674,4.3686,4.3696,4.3741,4.3735,4.3747,4.377,4.3791,4.3797,4.3802,4.382,4.3826,4.375,4.375,4.375,0,4.3518,4.3551,4.3553,4.3577,4.359,4.3583,4.361,4.3621,4.3643,4.3652,4.3641,4.3685,4.3694,4.3731,4.3743,4.375,4.3759,4.3745,4.3796,4.3801,4.3805,4.3822,4.3829,4.3752,4.3752,4.3751,4.3751,0,4.3571,4.3594,4.3612,4.3636,4.365,4.3676,4.3681,4.3696,4.3695,4.3701,4.3732,4.3743,4.3765,4.3773,4.3772,4.3811,4.3806,4.3796,4.3778,4.3813,4.383,4.3836,4.3754,4.3753,4.3753,4.3753,0,0,4.3617,4.3642,4.3649,4.3661,4.368,4.3698,4.3724,4.3746,4.376,4.3775,4.3797,4.3826,4.3818,4.383,4.383,4.3848,4.3886,4.3836,4.3837,4.3847,4.3932,4.3941,4.3948,4.3882,4.3883,4.3884,4.3932,0,4.3658,4.3704,4.3707,4.3749,4.3771,4.3766,4.3789,4.3804,4.381,4.383,4.3836,4.3858,4.3844,4.3852,4.387,4.3877,4.3903,4.3874,4.3903,4.3904,4.3901,4.3956,4.3965,4.4009,4.3938,4.3939,4.394,0,4.3711,4.3731,4.3775,4.3794,4.3804,4.3824,4.3846,4.3865,4.3881,4.3885,4.3899,4.3897,4.3924,4.3905,4.3943,4.3923,4.3935,4.3941,4.3943,4.3946,4.3925,4.3963,4.4023,4.4031,4.3949,4.3948,4.3948,0,4.3743,4.378,4.3813,4.3822,4.3844,4.3859,4.3869,4.3884,4.3899,4.3918,4.3927,4.3948,4.396,4.3977,4.3981,4.3966,4.402,4.4,4.4024,4.4024,4.4036,4.4036,4.4101,4.4041,4.4041,4.4041,4.4041,0,4.3789,4.3817,4.3828,4.3848,4.3879,4.3883,4.3914,4.3923,4.3937,4.3959,4.3955,4.3975,4.3979,4.4,4.4003,4.4035,4.404,4.4044,4.4045,4.4045,4.4045,4.4054,4.4052,4.4043,4.4043,4.4042,4.4042,0,4.3831,4.3838,4.3874,4.3893,4.3898,4.3921,4.3937,4.3956,4.3963,4.3991,4.3997,4.4007,4.4032,4.4038,4.4067,4.4069,4.4108,4.4105,4.4103,4.4103,4.4128,4.4126,4.4202,4.4213,4.4145,4.4146,4.4146,0,4.386,4.3882,4.3904,4.3919,4.393,4.3954,4.3969,4.3974,4.3989,4.4011,4.4029,4.4054,4.4074,4.4114,4.4124,4.4147,4.4145,4.4171,4.4149,4.4149,4.4148,4.4148,4.4151,4.4175,4.4176,4.4176,4.4177,0,4.3913,4.3917,4.3939,4.3964,4.3982,4.4001,4.4019,4.4032,4.4039,4.4057,4.4083,4.4099,4.413,4.4156,4.4179,4.4189,4.4185,4.4184,4.4191,4.4192,4.4191,4.4194,4.4116,4.4182,4.4182,4.4181,4.4181,4.4181,4.3951,4.3972,4.3991,4.4017,4.4031,4.4049,4.4069,4.4079,4.4101,4.4128,4.4129,4.4158,4.4176,4.4207,4.4218,4.4242,4.4234,4.4243,4.4246,4.4249,4.4252,4.4187,4.4245,4.4245,4.4245,4.4245,4.4245,0,4.4006,4.4019,4.4042,4.4069,4.409,4.4085,4.4105,4.4122,4.4149,4.4166,4.4187,4.4218,4.4243,4.4256,4.4281,4.4297,4.4296,4.4303,4.4303,4.4306,4.4257,4.4249,4.4304,4.4304,4.4304,4.4304,4.4304,4.4304,4.4037,4.4072,4.4078,4.412,4.4132,4.4162,4.4175,4.4191,4.4206,4.4241,4.4263,4.4271,4.4287,4.4313,4.4336,4.4339,4.4349,4.4358,4.436,4.4315,4.4309,4.4303,4.4296,4.436,4.436,4.4408,4.4408,4.4408]}]]